Cook, MN

4:14 PM CDT on May 28, 2017 (GMT -0500)
Cook Municipal

Weather History for KCQM - December, 2013

Change the Weather History Date:

Saturday, December 28, 2013

  Actual Average Record
Temperature  
Mean Temperature 13 °F -  
Max Temperature 28 °F 15 °F 39 °F (2003)
Min Temperature -2 °F 0 °F -13 °F (2007)
Degree Days  
Heating Degree Days 52    
Moisture  
Dew Point 17 °F    
Average Humidity 92    
Maximum Humidity 100    
Minimum Humidity 78    
Precipitation  
Precipitation 0.00 in - - ()
Sea Level Pressure  
Sea Level Pressure 29.88 in    
Wind  
Wind Speed 3 mph (NNW)    
Max Wind Speed 12 mph    
Max Gust Speed 21 mph    
Visibility 6 miles    
Events Snow    
Averages and records for this station are not official NWS values.
T = Trace of Precipitation, MM = Missing Value Source: NWS Daily Summary

Daily Weather History Graph

Daily Weather History Graph

Search for Another Location

Airport or City:

Trip Planner

Search our weather history database for the weather conditions in past years. The results will help you decide how hot, cold, wet, or windy it might be!

Date:

Astronomy

Dec. 28, 2013 Rise Set
Actual Time 7:59 AM CST 4:25 PM CST
Civil Twilight 7:23 AM CST 5:01 PM CST
Nautical Twilight 6:43 AM CST 5:41 PM CST
Astronomical Twilight 6:06 AM CST 6:18 PM CST
Moon 3:26 AM CST 1:25 PM CST
Length of Visible Light 9h 38m
Length of Day
8h 26m
Waning Crescent, 19% of the Moon is Illuminated
Dec 28
Waning Crescent
Jan 1
New
Jan 7
First Quarter
Jan 15
Full
Jan 23
Last Quarter

Hourly Weather History & Observations

Time (CST) Temp. Windchill Dew Point Humidity Pressure Visibility Wind Dir Wind Speed Gust Speed Precip Events Conditions
12:16 AM 28.4 °F - 26.6 °F 93% 29.86 in 10.0 mi Calm Calm - N/A   Overcast
12:37 AM 28.4 °F - 26.6 °F 93% 29.84 in 10.0 mi Calm Calm - N/A   Overcast
12:56 AM 28.4 °F - 26.6 °F 93% 29.85 in 10.0 mi Calm Calm - N/A   Overcast
1:16 AM 28.4 °F - 26.6 °F 93% 29.83 in 10.0 mi Calm Calm - N/A   Overcast
1:37 AM 28.4 °F 24.6 °F 26.6 °F 93% 29.85 in 10.0 mi SW 3.5 mph - N/A   Overcast
1:56 AM 28.4 °F 24.6 °F 26.6 °F 93% 29.86 in 10.0 mi SW 3.5 mph - N/A   Overcast
2:17 AM 28.4 °F 23.3 °F 26.6 °F 93% 29.86 in 10.0 mi SW 4.6 mph - N/A   Overcast
2:36 AM 28.4 °F - 26.6 °F 93% 29.85 in 10.0 mi Calm Calm - N/A   Overcast
2:56 AM 28.4 °F 24.6 °F 26.6 °F 93% 29.85 in 7.0 mi SW 3.5 mph - N/A   Overcast
3:16 AM 28.4 °F 23.3 °F 26.6 °F 93% 29.85 in 10.0 mi SW 4.6 mph - N/A   Overcast
3:37 AM 28.4 °F 22.2 °F 26.6 °F 93% 29.84 in 10.0 mi SW 5.8 mph - N/A   Overcast
3:56 AM 28.4 °F - 26.6 °F 93% 29.83 in 10.0 mi Calm Calm - N/A   Overcast
4:16 AM 28.4 °F 24.6 °F 26.6 °F 93% 29.81 in 10.0 mi SW 3.5 mph - N/A   Overcast
4:37 AM 28.4 °F 24.6 °F 26.6 °F 93% 29.82 in 10.0 mi WSW 3.5 mph - N/A   Overcast
4:56 AM 28.4 °F 24.6 °F 26.6 °F 93% 29.81 in 10.0 mi WSW 3.5 mph - N/A   Overcast
5:16 AM 28.4 °F 23.3 °F 26.6 °F 93% 29.80 in 10.0 mi SSW 4.6 mph - N/A   Overcast
5:37 AM 28.4 °F 24.6 °F 26.6 °F 93% 29.80 in 10.0 mi SSW 3.5 mph - N/A   Overcast
5:56 AM 28.4 °F - 26.6 °F 93% 29.80 in 7.0 mi Calm Calm - N/A   Overcast
6:16 AM 28.4 °F 23.3 °F 26.6 °F 93% 29.80 in 7.0 mi WSW 4.6 mph - N/A   Overcast
6:37 AM 26.6 °F 22.6 °F 26.6 °F 100% 29.80 in 4.0 mi WSW 3.5 mph - N/A   Overcast
6:56 AM 26.6 °F 22.6 °F 26.6 °F 100% 29.79 in 3.0 mi West 3.5 mph - N/A   Overcast
7:16 AM 26.6 °F - 26.6 °F 100% 29.79 in 2.5 mi Calm Calm - N/A   Overcast
7:37 AM 26.6 °F - 26.6 °F 100% 29.79 in 2.5 mi Calm Calm - N/A   Overcast
7:56 AM 26.6 °F - 26.6 °F 100% 29.79 in 4.0 mi Calm Calm - N/A   Overcast
8:16 AM 26.6 °F - 26.6 °F 100% 29.80 in 1.8 mi Calm Calm - N/A   Overcast
8:37 AM 26.6 °F - 26.6 °F 100% 29.80 in 1.8 mi Calm Calm - N/A   Overcast
8:56 AM 26.6 °F - 26.6 °F 100% 29.79 in 1.8 mi Calm Calm - N/A   Overcast
9:17 AM 28.4 °F - 26.6 °F 93% 29.80 in 2.0 mi Calm Calm - N/A   Overcast
9:36 AM 28.4 °F - 26.6 °F 93% 29.80 in 2.0 mi Calm Calm - N/A   Overcast
9:56 AM 28.4 °F - 26.6 °F 93% 29.80 in 1.8 mi Calm Calm - N/A   Overcast
10:17 AM 28.4 °F - 26.6 °F 93% 29.82 in 1.8 mi Calm Calm - N/A   Overcast
10:36 AM 28.4 °F - 28.4 °F 100% 29.82 in 2.0 mi Calm Calm - N/A   Overcast
10:56 AM 28.4 °F - 28.4 °F 100% 29.80 in 2.0 mi Calm Calm - N/A Snow Light Snow
11:17 AM 28.4 °F - 28.4 °F 100% 29.79 in 2.0 mi Calm Calm - N/A Snow Light Snow
11:36 AM 28.4 °F 24.6 °F 28.4 °F 100% 29.78 in 2.0 mi NNE 3.5 mph - N/A   Overcast
11:56 AM 28.4 °F 24.6 °F 28.4 °F 100% 29.78 in 4.0 mi NE 3.5 mph - N/A   Overcast
12:16 PM 26.6 °F 21.2 °F 26.6 °F 100% 29.78 in 3.0 mi NNE 4.6 mph - N/A Snow Light Snow
12:36 PM 26.6 °F 19.1 °F 24.8 °F 93% 29.78 in 3.0 mi NNE 6.9 mph - N/A   Overcast
12:57 PM 24.8 °F 16.9 °F 23.0 °F 93% 29.78 in 5.0 mi NNE 6.9 mph - N/A   Overcast
1:16 PM 24.8 °F 17.9 °F 23.0 °F 93% 29.78 in 4.0 mi NNE 5.8 mph - N/A   Overcast
1:36 PM 24.8 °F 16.1 °F 23.0 °F 93% 29.77 in 5.0 mi NNE 8.1 mph - N/A   Overcast
1:57 PM 23.0 °F 15.8 °F 21.2 °F 93% 29.78 in 4.0 mi NNE 5.8 mph - N/A   Overcast
2:16 PM 23.0 °F 17.0 °F 21.2 °F 93% 29.78 in 3.0 mi North 4.6 mph - N/A   Overcast
2:37 PM 21.2 °F 11.7 °F 21.2 °F 100% 29.80 in 2.5 mi North 8.1 mph - N/A   Overcast
2:57 PM 19.4 °F 8.6 °F 17.6 °F 93% 29.81 in 2.5 mi North 9.2 mph - N/A   Overcast
3:16 PM 17.6 °F 5.7 °F 17.6 °F 100% 29.82 in 3.0 mi NNE 10.4 mph - N/A   Overcast
3:37 PM 17.6 °F 5.7 °F 15.8 °F 93% 29.82 in 4.0 mi North 10.4 mph 16.1 mph N/A   Overcast
3:56 PM 15.8 °F 2.7 °F 15.8 °F 100% 29.84 in 5.0 mi North 11.5 mph 20.7 mph N/A   Overcast
4:16 PM 15.8 °F 6.1 °F 12.2 °F 86% 29.86 in 7.0 mi NNE 6.9 mph 18.4 mph N/A   Overcast
4:37 PM 14.0 °F 3.9 °F 12.2 °F 93% 29.88 in 7.0 mi North 6.9 mph - N/A Snow Light Snow
4:56 PM 12.2 °F 2.9 °F 10.4 °F 92% 29.90 in 4.0 mi North 5.8 mph 16.1 mph N/A Snow Light Snow
5:16 PM 12.2 °F 1.7 °F 8.6 °F 85% 29.92 in 3.0 mi North 6.9 mph - N/A Snow Light Snow
5:37 PM 10.4 °F -2.4 °F 8.6 °F 92% 29.94 in 3.0 mi North 9.2 mph - N/A Snow Light Snow
5:56 PM 10.4 °F -2.4 °F 6.8 °F 85% 29.96 in 1.8 mi North 9.2 mph - N/A Snow Light Snow
6:17 PM 8.6 °F -5.5 °F 6.8 °F 92% 29.98 in 2.5 mi North 10.4 mph - N/A Snow Light Snow
6:36 PM 8.6 °F -5.5 °F 5.0 °F 85% 30.00 in 2.5 mi North 10.4 mph 16.1 mph N/A Snow Light Snow
6:57 PM 6.8 °F -6.9 °F 3.2 °F 85% 30.02 in 7.0 mi North 9.2 mph - N/A Snow Light Snow
7:16 PM 6.8 °F -6.9 °F 1.4 °F 79% 30.02 in 10.0 mi North 9.2 mph - N/A   Overcast
7:36 PM 6.8 °F -6.9 °F 1.4 °F 79% 30.04 in 10.0 mi North 9.2 mph - N/A   Overcast
7:57 PM 5.0 °F -9.1 °F -0.4 °F 78% 30.05 in 4.0 mi NNW 9.2 mph 16.1 mph N/A Snow Light Snow
8:16 PM 3.2 °F -7.8 °F -0.4 °F 85% 30.06 in 1.8 mi North 5.8 mph 18.4 mph N/A Snow Light Snow
8:37 PM 3.2 °F -9.1 °F -0.4 °F 85% 30.07 in 3.0 mi North 6.9 mph - N/A Snow Light Snow
8:56 PM 3.2 °F -10.3 °F -2.2 °F 78% 30.07 in 10.0 mi North 8.1 mph - N/A Snow Light Snow
9:16 PM 1.4 °F -14.5 °F -2.2 °F 85% 30.08 in 7.0 mi North 10.4 mph - N/A Snow Light Snow
9:37 PM 1.4 °F -9.9 °F -2.2 °F 85% 30.08 in 10.0 mi North 5.8 mph - N/A Snow Light Snow
9:56 PM 1.4 °F -15.3 °F -4.0 °F 78% 30.10 in 10.0 mi North 11.5 mph 17.3 mph N/A   Overcast
10:16 PM 1.4 °F -13.5 °F -2.2 °F 85% 30.11 in 10.0 mi North 9.2 mph - N/A   Overcast
10:37 PM -0.4 °F -14.7 °F -5.8 °F 78% 30.11 in 10.0 mi North 8.1 mph 17.3 mph N/A   Overcast
10:57 PM -0.4 °F -12.0 °F -5.8 °F 78% 30.12 in 10.0 mi North 5.8 mph - N/A   Overcast
11:16 PM -0.4 °F -12.0 °F -5.8 °F 78% 30.13 in 10.0 mi NNW 5.8 mph - N/A   Overcast
11:37 PM -2.2 °F -16.8 °F -5.8 °F 85% 30.13 in 10.0 mi NNW 8.1 mph - N/A   Overcast
11:56 PM -2.2 °F -18.9 °F -7.6 °F 78% 30.15 in 10.0 mi NNW 10.4 mph 17.3 mph N/A   Overcast